THOR ABLESTAR DEB, 334

Orbit data source: Space-Track

THOR ABLESTAR DEB, 334 is space debris in LEO originally from a launch on Thu, 29 Jun 1961 UTC launched from the Air Force Eastern Test Range (AFETR). Debris objects in space refer to the collection of defunct objects orbiting the Earth. Examples of debris include non-operational satellites, rocket bodies, and fragments generated from explosions, collisions, or faulty payload assembly.

Loading next visibility...
THOR ABLESTAR DEB details
Identifier
334, 1961-015DL
Orbit
LEO
Last TLE update12 hours ago
Origin
Flag of USUSAF SSD (US)
ManufacturerUnknown
MissionSpacecraft
Bus & MotorUnknown
MassUnknown
Launch date (UTC)
1961-06-29 (64 years ago)
Launch vehicleUnknown
Launch site
Air Force Eastern Test Range (AFETR)
Object type
Payload
Rocket body
Debris
Shape & HBRUnknown
Radar Cross SectionSmall (<0.1 m²)

Expand to show TLE details & history

TLE from 12 hours ago
0 THOR ABLESTAR DEB
1 00334U 61015DL  25014.70555854  .00000043  00000-0  91750-4 0  9997
2 00334  66.9250   5.4218 0073658 119.4101 241.4359 13.91618883223919
Epoch: 2025-01-14T16:56Z
Definitive object data (Epoch: 2025-01-14T16:56:00.257Z)
Latitude0.00002°
Longitude-2.98768°
Altitude951.07 km
Speed7.363 km/s
True Right ascension00h 21m 41s
True Declination0° 00' 00"
Sunlit
Object was in daylight at TLE epoch
Visualization TLE readout
Latitude12.09452°
Longitude0.99294°
Altitude938.614 km
Speed7.377 km/s
Apparent Right ascension22h 03m 58s
Apparent Declination-18° 22' 36"
Sunlit
Object is in daylight
Visualization observer readout
Local Sidereal Time05:43:23
Azimuth270.938° WNW
Elevation-30.543°
Doppler factor1
Orbital elements
Apogee altitude975.108 km
Perigee altitude867.575 km
Semi-major axis7,299.479 km
Eccentricity0.0073658
Inclination66.925°
RAAN5.4218°
Arg. of periapsis119.4101°
True anomaly240.69785°
Mean anomaly241.4359°
Eccentric anomaly241.06655°
Mean motion3.48021 °/min
BSTAR0.00009175
Orbital period103.44 mins
Loading maneuver chart data...

THOR ABLESTAR DEB Visibility forecast

Observer location: undefined°, undefined

Span
Click to sort rows by Start time (UTC) header in descending order
Start Az.
Max El. time (UTC)
Max El. Az.
Max El.
End time (UTC)
End Az.
9 mins2025-01-15 08:59:13.725Z350.7° N2025-01-15 09:04:13.725Z52.916° ENE26.27°2025-01-15 09:08:13.725Z104.944° ESE
9 mins2025-01-15 10:46:13.725Z313.902° NW2025-01-15 10:50:13.725Z257.543° W34.626°2025-01-15 10:55:13.725Z181.035° SSW
9 mins2025-01-16 00:06:13.725Z177.529° S2025-01-16 00:10:13.725Z123.551° SE35.116°2025-01-16 00:15:13.725Z44.962° NE
9 mins2025-01-16 01:53:13.725Z257.146° W2025-01-16 01:57:13.725Z311.574° NW26.855°2025-01-16 02:02:13.725Z10.404° NNE
|